Weather History for Elizabeth City, NC

Change the Weather History Date:

Thursday, May 1, 2014

  Actual Average Record
Temperature  
Mean Temperature 72 °F 62 °F  
Max Temperature 76 °F 73 °F 94 °F (1942)
Min Temperature 68 °F 52 °F 35 °F (1971)
Degree Days  
Heating Degree Days 0 4  
Month to date heating degree days 0 4  
Since 1 July heating degree days 3311 3165  
Cooling Degree Days 7 2  
Month to date cooling degree days 7 2  
Year to date cooling degree days 36 44  
Growing Degree Days 22 (Base 50)    
Moisture  
Dew Point 67 °F    
Average Humidity 86    
Maximum Humidity 97    
Minimum Humidity 74    
Precipitation  
Precipitation 0.09 in 0.10 in 1.43 in (1950)
Month to date precipitation 0.09 0.10  
Year to date precipitation 12.72 13.66  
Snow  
Snow 0.00 in - 0.00 in (2002)
Month to date snowfall 0.0  
Since 1 July snowfall 10.2  
Snow Depth 0.00 in    
Sea Level Pressure  
Sea Level Pressure 29.89 in    
Wind  
Wind Speed 12 mph (South)    
Max Wind Speed 25 mph    
Max Gust Speed 31 mph    
Visibility 10 miles    
Events Rain    
T = Trace of Precipitation, MM = Missing Value Source: NWS Daily Summary

Daily Weather History Graph

Daily Weather History Graph

Search for Another Location

Airport:

Trip Planner

Search our weather history database for the weather conditions in past years. The results will help you decide how hot, cold, wet, or windy it might be!

Date:

Astronomy

May. 01, 2014 Rise Set
Actual Time 6:11 AM EDT 7:52 PM EDT
Civil Twilight 5:44 AM EDT 8:20 PM EDT
Nautical Twilight 5:10 AM EDT 8:53 PM EDT
Astronomical Twilight 4:35 AM EDT 9:28 PM EDT
Moon 7:59 AM EDT (5/1) 10:21 PM EDT (5/1)
Length of Visible Light 14h 35m
Length of Day
13h 40m
Waxing Crescent, 6% of the Moon is Illuminated
May 1
Waxing Crescent
May 6
First Quarter
May 14
Full
May 21
Last Quarter
May 28
New

Hourly Weather History & Observations

Time (EDT) Temp. Dew Point Humidity Pressure Visibility Wind Dir Wind Speed Gust Speed Precip Events Conditions
12:02 AM 69.8 °F 68.0 °F 94% 29.96 in 10.0 mi SSE 9.2 mph - N/A   Mostly Cloudy
12:54 AM 71.1 °F 68.0 °F 90% 29.96 in 10.0 mi SSE 6.9 mph - N/A   Clear
1:37 AM 71.6 °F 68.0 °F 88% 29.95 in 10.0 mi South 10.4 mph - N/A   Mostly Cloudy
1:54 AM 71.1 °F 68.0 °F 90% 29.94 in 10.0 mi South 8.1 mph - N/A   Mostly Cloudy
2:54 AM 71.1 °F 68.0 °F 90% 29.93 in 10.0 mi South 8.1 mph - N/A   Overcast
3:36 AM 71.6 °F 68.0 °F 88% 29.92 in 10.0 mi South 9.2 mph - N/A   Mostly Cloudy
3:43 AM 71.6 °F 68.0 °F 88% 29.92 in 10.0 mi South 10.4 mph - N/A   Scattered Clouds
3:54 AM 71.1 °F 68.0 °F 90% 29.92 in 10.0 mi South 9.2 mph - N/A   Clear
4:05 AM 71.6 °F 68.0 °F 88% 29.92 in 10.0 mi South 8.1 mph - N/A   Partly Cloudy
4:17 AM 71.6 °F 68.0 °F 88% 29.92 in 10.0 mi South 10.4 mph - N/A   Mostly Cloudy
4:46 AM 69.8 °F 68.0 °F 94% 29.91 in 10.0 mi South 8.1 mph - N/A   Scattered Clouds
4:54 AM 70.0 °F 68.0 °F 93% 29.91 in 10.0 mi South 10.4 mph - N/A   Partly Cloudy
5:54 AM 69.1 °F 66.9 °F 93% 29.92 in 10.0 mi South 10.4 mph - N/A   Partly Cloudy
6:03 AM 69.8 °F 66.2 °F 88% 29.92 in 10.0 mi South 9.2 mph - N/A   Mostly Cloudy
8:54 AM 73.9 °F 70.0 °F 87% 29.91 in 10.0 mi SSW 15.0 mph 19.6 mph N/A   Mostly Cloudy
9:10 AM 73.4 °F 69.8 °F 88% 29.91 in 10.0 mi SSW 17.3 mph 21.9 mph N/A   Mostly Cloudy
9:28 AM 73.4 °F 69.8 °F 88% 29.91 in 10.0 mi SSW 13.8 mph - N/A   Mostly Cloudy
9:47 AM 75.2 °F 69.8 °F 83% 29.91 in 10.0 mi SW 15.0 mph 19.6 mph N/A   Mostly Cloudy
9:54 AM 75.0 °F 68.0 °F 79% 29.91 in 10.0 mi SSW 15.0 mph 21.9 mph N/A   Overcast
11:54 AM 75.9 °F 66.0 °F 71% 29.88 in 10.0 mi SSW 16.1 mph 26.5 mph N/A   Scattered Clouds
1:54 PM 75.9 °F 66.0 °F 71% 29.87 in 10.0 mi SSW 12.7 mph 21.9 mph N/A   Mostly Cloudy
3:51 PM 69.8 °F 64.4 °F 83% 29.85 in 2.0 mi SSW 13.8 mph - 0.06 in Rain Rain
3:54 PM 70.0 °F 64.0 °F 81% 29.85 in 3.0 mi SSW 12.7 mph - 0.07 in Rain Rain
4:54 PM 71.1 °F 63.0 °F 75% 29.83 in 10.0 mi SSW 10.4 mph - 0.00 in   Mostly Cloudy
5:54 PM 71.1 °F 64.9 °F 81% 29.82 in 10.0 mi South 11.5 mph 21.9 mph N/A   Scattered Clouds
6:54 PM 72.0 °F 66.0 °F 81% 29.82 in 10.0 mi South 10.4 mph - N/A   Scattered Clouds
7:54 PM 72.0 °F 66.0 °F 81% 29.82 in 10.0 mi South 11.5 mph - N/A   Mostly Cloudy
8:54 PM 71.1 °F 64.9 °F 81% 29.80 in 10.0 mi South 11.5 mph - N/A   Mostly Cloudy
9:54 PM 71.1 °F 64.0 °F 78% 29.79 in 10.0 mi South 13.8 mph 21.9 mph N/A   Partly Cloudy
10:54 PM 71.1 °F 64.0 °F 78% 29.80 in 10.0 mi SSW 13.8 mph - N/A   Partly Cloudy
11:54 PM 70.0 °F 63.0 °F 78% 29.80 in 10.0 mi SSW 11.5 mph 20.7 mph N/A   Scattered Clouds